Location: Unspecified
(0.0000°N, 0.0000°E)
Time: 16:37:07
(UTC+00:00)

GITAI-SC1 - Visible Passes

Search period start: 14 January 2026 00:00
Search period end: 24 January 2026 00:00
Orbit: 505 x 509 km, 45.0° (Epoch: 14 January)

Date Brightness Start Highest point End Pass type
(mag) Time Alt. Az. Time Alt. Az. Time Alt. Az.
14 Jan ? 20:07:57 10° SW 20:09:54 27° SSW 20:09:54 27° SSW visible
15 Jan ? 19:48:06 10° SW 19:51:26 62° SSW 19:51:26 62° SSW visible
16 Jan ? 19:28:14 10° SW 19:32:09 88° NW 19:33:00 53° NE visible
17 Jan ? 19:08:24 10° SW 19:12:17 76° NW 19:14:37 23° NE visible
18 Jan ? 18:48:34 10° SW 18:52:26 64° NW 18:56:16 10° NE visible
21 Jan ? 04:22:39 11° NNE 04:23:31 11° NE 04:24:50 10° ENE visible
22 Jan ? 04:04:17 13° ENE 04:04:17 13° ENE 04:05:32 10° ENE visible
22 Jan ? 05:39:11 10° WNW 05:42:49 37° SW 05:46:28 10° SSE visible
23 Jan ? 03:45:54 11° E 03:45:54 11° E 03:46:03 10° E visible
23 Jan ? 05:20:40 18° W 05:22:56 32° SW 05:26:28 10° SSE visible
